Voltar ao catálogo

STARLINK-5264

AtivoComunicaçõesVLEO
NORAD 54206·PAYLOAD·🇺🇸 United States

Lançado Oct 28, 2022 de Vandenberg Space Force Base

Loading…

Próximas Passagens (próximas 24 horas)

TLE

AtualizadoSource: CelesTrak SupGP

Época: Sep 14, 2026, 21:02 UTC

1 54206C 22141BB  26257.87687500 -.00016609  00000+0 -47525-3 0  2576
2 54206  53.1588 180.2810 0001351  92.4588  15.9146 15.35403112    17

Acompanhe STARLINK-5264 em tempo real com AllMySat

Download on the App Store